Location: Lecco
(45.8566°N, 9.3977°E)
Time: 04:28:26
(UTC+01:00)

Envisat - Pass Details

Date: 26 October 2019
Orbit: 764 x 766 km, 98.1° (Epoch: 14 November)

Event Time Altitude Azimuth Distance (km) Brightness Sun altitude
Rises 20:47:07 0° 213° (SSW) 3,221 6.5 -26.4°
Reaches altitude 10° 20:50:22 10° 235° (SW) 2,300 6.0 -27.0°
Maximum altitude 20:53:21 16° 271° (W) 1,947 5.9 -27.5°
Drops below altitude 10° 20:56:20 10° 308° (NW) 2,310 6.3 -28.0°
Sets 20:59:38 0° 330° (NNW) 3,242 6.8 -28.6°
